Theta_e
355 357 357 356 357 357 357 360 360 359 358 360 361 362 362 363 361 361 364 365 364 364 364 366 367 365 363 364 362 365 368 367 366 369 370 370 369 368 368 370 367 365 366 365 363 364 365 364 364 365 368 365 364 362 361 363 366 363 363 361 360 364 364 362 357 356 360 358 357 360 361 361 358 362 360 360 360 362 360 362 362 359 357 354 353
358 361 359 356 355 356 357 358 359 359 357 358 360 360 360 362 364 364 361 365 365 362 365 364 365 365 364 365 365 366 368 370 367 366 367 368 368 365 365 368 368 365 365 366 365 362 364 364 363 364 367 366 365 362 362 359 359 359 360 360 360 361 366 363 360 357 353 361 361 366 360 362 358 364 361 359 360 363 360 359 357 354 354 357 353
362 362 362 359 358 356 357 356 357 357 355 355 355 356 358 360 363 362 360 361 364 364 363 363 364 366 365 365 367 367 369 368 367 366 367 369 368 365 362 366 367 365 364 364 362 365 363 362 361 363 361 363 364 361 360 359 360 361 361 361 362 362 364 366 364 360 357 356 357 356 357 358 357 359 361 359 363 360 361 357 352 350 352 352 352
361 363 363 362 360 359 357 355 354 355 353 353 353 356 356 358 360 360 360 359 359 364 364 364 365 367 365 366 368 367 367 366 366 367 368 369 369 369 368 367 366 366 365 364 363 364 363 363 361 362 363 362 361 361 361 361 362 362 362 364 364 364 366 365 366 364 361 356 360 357 360 359 360 361 360 359 356 357 357 359 356 353 353 350 350
362 362 363 362 362 358 356 355 354 354 354 352 352 353 355 355 359 360 359 358 359 361 363 365 365 366 361 364 366 368 367 367 367 366 366 367 367 366 367 368 368 368 367 366 364 365 363 362 361 363 363 360 362 362 361 362 363 362 361 362 362 363 364 364 364 364 360 357 357 360 362 361 360 362 362 357 354 355 358 359 357 357 358 353 347
362 360 361 360 361 361 357 356 356 355 354 353 353 353 353 354 356 359 359 359 360 359 362 362 362 365 365 364 366 367 367 367 368 368 365 365 365 365 367 368 367 368 368 366 366 367 365 366 364 362 360 358 357 359 363 361 361 359 362 363 362 362 361 361 361 360 360 358 358 355 360 356 359 361 363 362 356 352 354 356 357 357 359 356 353
362 361 362 361 360 359 358 358 358 357 358 356 355 355 354 353 355 356 359 359 360 359 359 362 362 362 363 361 361 365 367 366 367 368 367 366 366 366 364 365 365 365 367 365 364 363 362 361 362 362 361 361 358 358 360 361 359 361 361 361 362 360 358 357 357 357 357 354 354 354 353 355 356 352 356 361 363 363 356 352 353 356 358 359 357
360 360 359 360 359 359 358 359 358 361 361 362 361 359 356 355 355 356 358 359 359 359 358 357 360 359 359 359 361 363 364 364 366 367 367 365 364 363 363 362 360 362 363 364 362 360 361 360 358 358 359 362 361 361 361 359 360 359 359 361 362 361 359 356 356 356 354 353 350 348 350 353 356 357 356 358 356 355 355 351 347 350 354 359 360
353 354 356 356 357 358 358 361 363 363 363 364 366 363 360 359 357 356 357 357 357 359 358 357 358 359 358 358 359 359 357 358 358 362 363 362 362 361 361 360 360 360 360 359 360 360 360 358 357 356 359 358 361 366 367 367 360 357 360 361 361 359 359 357 355 354 355 353 353 354 351 351 353 353 349 348 348 348 353 354 353 354 352 350 354
355 354 353 354 356 359 361 362 360 362 364 365 366 366 364 362 358 357 356 357 358 359 360 360 358 356 356 358 358 355 352 352 362 362 362 362 362 359 359 361 361 360 359 359 357 358 357 358 355 357 358 362 367 370 364 360 360 361 362 362 361 360 357 357 355 354 353 351 350 349 346 345 344 348 345 347 349 351 348 350 348 350 353 353 354
354 354 353 354 355 355 356 356 359 359 360 359 362 365 362 361 360 360 359 359 359 360 358 357 356 354 353 354 354 352 348 349 356 343 344 349 360 360 359 361 363 362 360 361 360 358 358 357 359 358 365 369 369 364 363 360 359 357 355 357 362 365 359 355 355 354 353 350 349 349 347 347 349 352 350 346 345 347 347 351 350 350 350 349 347
352 352 353 354 354 354 354 354 355 356 357 358 359 360 360 358 359 361 360 358 361 359 358 357 357 354 351 350 350 350 350 356 339 339 341 339 352 360 358 357 356 358 359 358 358 357 357 356 355 354 355 359 361 368 368 361 355 356 355 355 356 356 357 362 360 357 357 352 351 350 350 350 350 352 346 344 348 352 356 357 357 355 354 352 352
350 351 352 353 353 354 355 354 355 355 356 357 358 359 357 357 356 358 360 361 360 361 361 359 359 358 355 354 354 352 352 344 337 336 337 335 336 353 356 357 355 355 356 358 359 360 360 358 357 354 352 354 358 360 365 368 365 355 355 357 358 355 345 344 349 363 361 358 357 355 354 354 353 354 355 358 365 361 360 355 356 356 356 354 354
345 347 350 351 352 355 356 356 357 357 357 358 357 355 355 354 357 358 360 361 360 360 359 360 360 361 360 358 359 358 356 347 335 333 333 331 332 341 358 356 356 355 357 357 357 358 360 362 362 360 360 362 365 365 366 368 368 370 372 372 371 369 357 345 342 343 353 359 359 357 360 363 360 363 365 368 365 361 361 359 363 358 359 359 364
342 343 344 346 348 349 350 353 354 355 356 356 354 352 352 354 356 358 357 356 357 358 357 358 359 359 359 359 359 357 357 337 331 330 329 327 330 339 356 355 355 356 357 358 361 360 361 359 362 362 365 366 366 367 368 368 368 364 365 364 363 363 363 361 363 363 362 359 361 362 363 364 365 366 367 368 366 365 366 366 366 366 366 368 367
337 338 339 340 343 345 347 347 350 352 351 352 351 350 351 350 350 353 355 357 357 356 358 357 358 359 360 361 359 358 355 326 330 328 327 326 330 349 356 359 358 357 358 359 360 363 364 364 365 365 366 367 367 361 365 365 363 362 362 363 363 363 359 364 349 353 363 358 359 358 358 358 346 364 367 361 362 363 363 362 362 362 361 358 355
334 336 338 339 340 341 342 342 343 344 345 344 344 346 347 348 350 352 352 354 355 355 356 357 360 359 360 361 360 361 358 332 323 323 324 324 334 357 358 358 359 360 359 360 361 362 363 364 366 364 364 367 358 338 347 358 361 361 361 360 358 357 354 354 347 338 339 336 334 334 332 331 331 329 327 328 346 354 358 355 354 357 355 352 352
332 334 336 338 341 342 343 342 341 341 341 340 343 344 345 345 348 352 354 353 351 353 356 356 358 360 360 359 358 358 357 338 322 320 321 323 342 358 361 360 360 360 360 362 362 363 365 362 363 365 363 366 332 334 336 355 360 361 361 360 360 357 358 357 354 356 334 331 331 331 331 332 331 330 329 328 328 337 354 350 356 356 354 354 350
332 331 332 336 339 340 341 341 342 341 340 339 340 341 341 343 345 347 348 348 349 351 355 356 355 357 356 356 357 355 356 342 317 319 320 324 343 362 360 361 361 360 359 360 363 363 365 363 361 361 360 343 320 326 328 350 357 360 362 361 358 358 359 360 359 360 364 363 365 364 359 348 352 358 359 339 335 342 355 357 357 355 353 353 353
334 334 333 334 337 339 339 338 340 340 340 339 339 340 344 345 346 345 345 346 345 346 348 351 353 355 354 354 353 353 351 346 330 314 316 320 325 353 363 361 360 360 361 361 360 362 362 363 360 333 323 321 318 318 321 325 350 359 360 359 357 357 362 361 362 360 360 359 360 362 363 366 365 368 370 371 367 362 360 360 359 357 355 354 354
333 334 334 334 334 336 337 338 338 340 341 340 340 340 342 343 345 344 346 346 345 344 345 347 348 347 349 349 346 345 344 341 335 313 313 315 319 331 358 358 359 360 359 357 358 357 359 358 353 331 318 317 316 314 316 320 329 353 359 358 356 346 345 357 358 358 358 361 361 360 361 363 364 364 364 365 363 364 364 364 362 361 359 354 352
332 332 332 332 332 333 335 337 338 338 341 342 341 340 341 343 343 345 346 345 344 345 344 343 342 344 344 344 346 346 344 342 341 321 313 312 314 320 350 355 347 353 354 352 356 355 356 363 355 334 320 321 316 312 310 311 320 343 357 327 321 327 348 351 354 356 357 357 357 357 357 357 357 357 358 360 358 358 360 363 364 363 360 359 357
329 329 330 329 331 332 333 334 335 337 338 340 339 339 340 342 342 344 344 343 343 343 343 343 342 342 343 343 347 347 343 340 336 338 320 313 312 314 316 335 325 352 349 346 342 344 346 349 350 335 314 309 308 310 310 311 320 339 324 321 321 321 334 348 353 355 354 354 355 354 355 356 356 357 359 359 359 361 362 363 363 362 362 362 362
329 328 327 327 328 330 331 332 333 335 336 337 337 337 337 338 338 340 342 340 338 338 338 341 341 339 338 341 344 345 344 343 338 335 333 319 315 313 315 315 319 340 347 348 347 345 346 346 339 314 309 306 305 309 313 319 334 320 314 316 319 326 343 348 348 352 351 350 351 351 353 355 355 356 358 361 357 362 363 362 364 363 364 363 364
326 326 327 326 326 327 327 329 330 332 333 334 334 334 335 336 334 336 336 336 337 336 336 339 340 341 340 340 341 342 340 340 341 339 334 333 323 320 321 320 320 317 346 350 347 346 327 313 311 311 312 311 309 311 316 320 312 312 312 316 333 347 350 351 351 352 349 348 348 350 351 352 355 355 360 361 361 360 360 361 362 363 363 365 364
326 326 326 326 326 326 324 323 325 328 329 330 331 331 332 332 332 332 332 333 334 334 334 335 335 337 337 338 338 338 339 339 340 341 342 339 336 327 324 326 338 337 339 340 335 324 317 317 313 312 316 323 345 351 348 350 331 328 326 331 349 350 348 348 350 348 347 346 346 346 347 350 352 356 358 359 357 356 358 358 357 357 361 361 360
325 326 325 324 325 325 325 324 322 323 325 325 327 328 330 330 331 331 331 330 330 330 331 332 332 333 334 334 336 337 338 338 336 335 336 336 336 339 343 343 340 340 344 344 342 342 338 334 338 329 325 325 330 334 338 341 347 350 350 349 347 348 346 348 346 346 345 345 345 347 348 350 353 354 354 354 353 355 357 355 354 353 354 355 354
323 324 323 324 324 324 324 321 323 323 323 324 323 323 324 327 327 327 327 326 327 327 329 329 328 329 330 332 335 336 334 336 334 329 330 329 331 335 336 339 342 341 339 341 342 342 341 341 336 345 348 348 347 348 347 346 345 343 344 344 345 347 347 347 348 349 349 349 349 349 349 350 349 349 350 351 351 353 355 352 352 352 352 354 352
323 323 323 323 323 325 324 324 323 323 323 327 324 322 322 323 326 327 325 325 324 324 327 327 327 328 330 332 331 332 333 333 328 309 316 305 313 321 331 335 332 337 327 311 329 340 343 339 339 336 338 339 338 339 338 338 341 342 343 344 343 345 346 345 342 341 342 342 342 343 343 343 344 346 345 345 346 346 350 351 353 351 352 352 348
322 322 322 322 322 322 323 322 323 323 322 322 325 323 319 313 318 325 324 320 311 303 304 324 323 326 329 332 332 328 327 324 306 300 297 296 296 297 299 296 297 310 311 307 317 333 338 336 336 335 334 335 331 330 330 333 332 331 333 330 333 338 339 339 338 337 338 338 340 338 338 338 339 340 340 340 342 344 344 339 348 351 348 347 346
320 319 320 319 317 321 321 321 323 324 323 323 323 323 324 321 302 305 315 317 309 301 297 299 302 308 320 326 325 311 308 302 299 297 297 296 294 294 293 294 294 295 297 317 333 337 336 334 334 333 332 332 330 329 329 329 330 328 328 330 332 334 333 333 333 331 332 334 335 336 335 337 337 338 336 336 337 337 339 342 344 346 345 345 345
318 318 318 318 319 320 320 321 322 321 322 322 324 323 323 323 325 305 302 305 301 299 300 300 299 300 303 307 320 328 315 305 298 297 296 295 295 293 293 294 294 293 295 299 331 336 334 332 331 331 330 330 330 330 329 329 328 329 329 328 328 329 329 331 331 332 332 332 331 330 332 333 334 335 334 334 334 336 337 337 338 339 340 341 342
317 318 318 318 318 320 319 320 320 320 320 321 322 323 322 322 321 324 321 300 300 299 297 297 298 302 302 300 297 301 301 300 297 297 296 295 294 295 293 294 294 293 297 318 336 330 330 330 328 330 328 328 330 329 330 329 328 328 328 327 327 329 330 332 329 332 330 329 328 330 331 331 331 331 330 332 333 332 334 333 334 336 337 337 335
314 314 314 317 317 318 318 319 318 318 319 320 321 320 321 321 321 320 321 322 321 307 297 297 301 299 298 299 301 301 301 299 298 297 296 296 295 296 296 313 302 294 303 331 332 330 329 328 326 328 327 327 327 327 327 328 327 328 327 327 328 329 331 332 330 327 326 327 328 328 328 329 328 329 330 330 330 331 330 330 331 331 331 331 331
316 314 311 312 315 316 316 317 317 318 318 319 318 319 319 320 320 321 321 319 320 319 321 320 306 307 319 304 299 297 300 299 299 298 297 296 298 295 295 323 330 330 326 332 330 328 325 325 326 326 326 326 326 326 326 328 326 325 325 326 326 327 328 327 325 327 326 326 326 326 325 325 327 327 327 327 326 327 327 328 328 329 328 328 328
314 315 317 316 316 317 316 316 315 316 316 317 317 317 318 318 319 320 319 320 319 319 320 321 322 310 305 307 300 299 301 301 301 299 298 296 295 297 327 327 326 327 326 328 327 327 326 326 326 325 325 325 327 326 326 325 326 325 326 325 324 325 326 325 323 325 326 326 325 325 322 325 325 324 324 323 324 323 324 324 324 324 324 324 324
313 314 314 314 315 316 316 315 317 316 312 313 316 317 317 317 318 318 320 318 318 318 318 320 322 322 319 324 315 304 303 303 302 301 299 299 295 312 328 325 324 325 325 325 326 326 325 325 325 325 324 324 324 324 325 324 325 326 324 326 325 326 324 323 322 324 325 324 325 325 325 325 325 325 322 321 321 321 322 323 322 322 322 321 318
313 312 312 312 312 314 314 314 314 311 314 315 316 317 315 317 318 316 315 315 315 316 317 318 316 317 318 320 319 319 316 308 304 302 299 298 309 327 327 327 326 325 324 325 327 326 325 326 325 324 324 323 323 323 322 322 322 322 322 324 325 324 320 322 323 325 326 324 323 323 322 322 323 323 321 320 320 320 320 321 321 320 321 320 320
314 309 306 306 307 310 311 312 313 313 314 315 315 315 314 314 315 314 314 315 316 316 316 316 316 316 316 318 318 318 316 317 319 320 321 322 323 324 325 326 326 325 325 325 325 325 325 325 325 325 324 323 323 323 323 321 322 322 323 322 322 322 321 322 323 323 322 322 322 322 321 321 322 322 321 320 320 320 320 319 319 319 319 319 320
312 312 309 305 309 310 310 311 311 312 312 313 313 314 314 315 314 313 314 314 314 314 314 313 313 315 315 316 314 313 312 315 316 318 318 319 320 323 324 325 325 325 325 326 326 327 326 325 324 324 323 323 322 321 321 322 322 321 321 321 321 321 321 321 321 321 320 320 320 320 320 321 321 321 320 319 319 319 318 317 317 318 318 318 318
311 312 309 307 305 308 310 310 311 311 312 311 311 311 311 312 312 313 312 312 312 311 312 312 312 313 313 310 302 303 313 314 316 316 317 318 320 321 322 322 322 324 324 324 324 325 323 323 322 321 321 320 320 319 319 318 319 319 319 319 319 319 320 321 321 321 320 319 319 320 320 320 319 318 316 317 315 316 317 318 318 318 317 317 318
310 310 310 310 309 309 309 309 309 309 309 311 311 310 311 311 312 311 311 311 311 310 310 311 312 313 307 301 301 297 308 315 315 315 316 316 317 318 318 319 320 319 319 319 318 316 316 317 318 317 317 317 315 315 314 315 316 318 317 317 317 317 317 317 318 318 318 318 318 318 318 317 316 315 316 313 317 318 318 318 318 318 317 317 318
310 309 309 310 308 308 308 308 309 308 309 309 309 310 310 310 310 310 309 309 308 308 309 309 310 311 311 305 306 303 312 313 313 313 313 313 314 314 314 313 313 314 315 315 313 313 313 314 314 314 313 312 312 312 311 311 312 313 314 314 314 314 314 315 315 314 315 316 316 316 315 315 314 315 315 315 316 316 316 317 316 317 317 317 317
308 308 309 308 307 308 308 308 307 308 308 307 307 307 307 308 307 308 307 308 307 308 307 307 308 308 308 308 308 308 310 311 311 312 313 313 312 312 312 312 312 312 312 312 311 311 311 311 310 311 311 312 312 313 312 312 311 311 311 311 311 311 312 312 313 314 314 314 313 313 313 313 313 313 313 313 314 314 315 315 316 315 315 315 315
308 307 307 307 307 307 306 306 306 306 306 306 305 305 306 305 305 305 305 305 307 306 306 306 306 305 305 306 308 308 308 309 309 310 310 311 310 310 310 310 311 311 310 310 310 310 310 310 309 309 309 309 310 311 310 310 310 310 310 310 310 309 309 311 313 313 313 313 311 311 311 311 311 311 312 312 312 313 312 313 313 312 313 313 313
307 307 306 306 305 305 305 305 306 304 304 304 304 303 304 304 304 304 304 304 304 304 303 304 304 304 305 305 306 306 306 307 308 308 309 310 310 310 310 309 308 309 309 308 309 308 308 308 308 307 306 307 308 308 308 309 309 309 309 309 309 308 309 311 312 312 312 311 309 308 308 309 309 310 310 310 309 310 311 313 313 313 313 312 312
306 306 305 305 304 304 304 304 303 303 303 302 302 303 303 302 303 303 303 302 301 302 302 302 303 302 303 303 303 304 304 304 305 306 307 308 309 309 309 308 307 307 307 308 308 308 307 307 307 307 307 307 307 307 307 308 309 309 310 309 308 309 307 304 307 308 307 306 306 306 306 306 306 307 307 308 310 310 310 310 311 312 312 311 311
305 304 304 303 303 303 303 302 301 300 301 301 301 301 301 301 301 300 300 300 300 300 300 301 302 302 302 302 302 302 303 303 304 305 306 306 306 307 307 307 307 307 307 307 307 307 307 307 307 306 306 306 306 306 307 307 308 308 308 309 307 301 299 298 302 303 304 303 302 302 303 303 304 305 306 307 308 308 308 308 310 310 311 310 310
303 303 303 302 302 301 301 300 300 300 300 301 300 299 299 299 299 299 299 299 299 299 299 300 301 301 300 301 301 301 301 302 302 303 303 303 304 304 304 305 306 306 306 306 307 307 307 307 307 306 306 306 306 307 306 307 307 307 307 308 301 295 293 293 297 299 297 300 302 303 304 304 304 304 305 306 306 307 307 308 309 309 309 310 310
302 302 301 301 300 300 300 300 299 299 300 299 298 298 298 299 298 298 298 298 298 298 298 299 299 299 298 299 299 299 300 300 300 300 301 302 301 301 302 303 304 305 305 305 306 306 306 307 307 307 307 307 306 306 306 306 306 306 305 300 293 292 291 293 295 296 297 299 298 299 300 300 301 302 302 304 305 306 306 306 307 308 308 308 309
301 300 300 299 298 299 299 299 298 298 298 298 297 297 296 297 297 297 297 297 297 297 298 298 298 298 298 298 299 298 298 299 299 299 300 300 300 300 300 301 301 302 303 303 304 304 304 304 305 305 305 305 305 305 305 305 305 301 296 293 291 290 291 291 295 291 290 291 296 298 299 300 301 301 302 303 304 305 305 305 305 306 307 307 307
Wind_Speed
12 11 10 11 11 11 11 11 11 10 11 10 9 9 8 8 7 8 7 7 7 8 8 7 7 7 7 7 7 6 6 5 5 5 5 5 4 4 2 4 5 5 4 5 5 4 4 4 5 4 4 5 4 5 4 4 4 5 4 5 5 5 4 4 6 7 6 7 7 6 6 6 6 5 7 7 7 7 8 7 7 7 6 5 3
10 9 9 10 11 11 11 10 10 10 11 11 11 10 9 8 8 7 8 8 8 8 8 8 8 7 7 7 7 7 7 6 6 6 6 6 6 5 6 6 6 5 5 5 5 4 4 5 5 5 5 6 5 6 5 5 5 5 4 4 4 5 3 4 5 6 8 7 7 6 7 5 7 5 7 8 8 7 8 7 6 7 5 5 7
9 8 9 9 11 11 10 10 10 11 11 11 12 12 11 10 9 9 9 8 8 8 8 8 7 7 7 6 7 7 7 7 7 6 6 6 5 5 4 5 5 6 6 6 5 5 5 5 6 6 5 5 5 6 5 5 4 5 5 5 5 5 5 3 4 6 8 7 7 8 8 7 8 8 8 7 7 7 7 7 7 6 6 7 6
9 9 8 9 10 10 10 9 10 11 11 10 12 11 10 10 10 10 9 8 8 8 8 8 7 7 7 7 7 7 7 7 7 7 7 6 6 6 5 5 5 5 5 5 5 5 5 5 5 5 4 4 4 5 5 5 4 4 5 5 5 5 5 5 5 5 6 8 6 7 7 7 7 7 7 7 7 6 6 7 7 7 7 7 8
9 10 10 10 9 9 10 10 10 10 10 10 11 11 11 10 9 10 10 9 9 8 8 7 7 7 7 8 7 7 7 7 7 7 7 6 7 6 5 5 6 6 5 5 5 5 5 6 5 5 5 5 5 6 5 4 4 4 5 4 4 4 4 4 5 5 6 7 7 6 7 7 7 7 7 7 7 6 6 7 7 8 7 8 9
9 9 9 9 9 10 10 9 9 10 10 9 10 10 10 10 9 9 9 9 9 8 8 8 8 8 7 7 7 7 7 7 7 7 7 7 7 7 6 6 6 6 6 6 6 6 6 6 5 5 6 6 6 5 4 5 5 5 5 4 5 5 5 6 5 6 6 7 7 8 7 7 7 6 6 6 7 7 7 7 7 6 6 8 8
8 8 9 9 9 9 10 9 8 9 9 9 8 9 9 10 10 9 9 9 10 9 9 9 8 8 8 7 7 7 7 7 7 7 7 6 6 6 6 6 6 6 6 6 6 6 6 7 6 6 6 6 6 6 5 5 5 5 5 5 5 5 6 6 6 6 7 7 7 8 8 7 7 8 6 6 7 7 8 8 8 7 7 7 8
7 7 8 9 9 9 9 9 9 8 7 7 8 8 9 9 8 8 8 9 10 10 10 9 9 8 8 8 7 7 7 7 7 7 7 7 7 7 7 7 7 6 6 6 6 6 6 7 7 7 6 6 6 6 6 6 5 6 5 5 5 6 6 6 6 6 7 7 8 8 8 8 8 8 7 7 7 6 6 7 8 8 8 7 8
8 6 6 6 6 5 5 6 7 7 7 7 7 8 8 8 8 8 8 8 8 9 10 10 9 9 9 8 8 8 8 8 8 8 8 8 7 7 7 7 7 7 7 7 7 7 7 7 7 8 5 3 3 5 7 7 6 7 6 6 6 6 7 7 7 6 6 7 7 7 8 8 8 8 8 7 7 8 7 7 7 8 8 9 9
9 8 9 9 8 6 4 5 6 7 7 8 8 8 8 9 10 9 9 8 8 7 8 9 10 10 9 9 9 9 8 7 5 4 0 5 6 6 6 6 7 6 6 6 7 8 8 8 7 4 3 6 7 8 9 9 8 8 8 7 7 7 7 8 7 7 7 7 8 8 8 8 9 8 9 9 9 8 8 7 8 8 8 9 9
8 8 8 8 6 6 5 5 4 5 7 8 8 8 8 8 8 8 9 8 8 8 8 9 10 10 10 10 10 10 9 7 12 11 9 8 7 7 7 7 7 8 8 7 7 7 8 7 8 8 9 9 9 11 10 11 11 11 12 11 10 8 8 9 8 8 8 9 8 9 9 9 9 9 9 10 10 9 8 8 8 8 8 8 9
9 9 9 8 9 9 8 10 10 10 9 8 6 5 5 8 8 8 8 9 8 9 9 9 9 9 9 10 10 9 9 8 15 12 11 10 8 7 7 8 8 8 8 8 7 7 7 8 8 7 7 7 7 7 11 13 13 12 12 12 12 12 11 9 8 8 8 8 8 9 9 9 9 9 10 10 9 8 8 8 8 8 9 9 8
9 9 9 9 9 10 11 11 11 12 12 11 9 6 6 8 11 10 10 9 9 9 9 9 9 8 8 8 8 8 9 12 13 12 11 10 10 9 7 8 8 8 8 7 7 7 6 7 7 6 7 4 6 8 7 7 11 14 13 12 12 13 13 15 14 12 10 10 10 10 9 9 10 10 9 9 8 10 9 10 9 9 9 9 9
6 5 2 2 7 8 8 8 9 9 9 7 7 8 8 9 9 9 8 9 9 9 10 10 8 8 7 8 8 8 10 10 12 12 9 9 8 8 7 8 8 8 8 8 7 7 7 7 7 7 6 7 6 7 6 6 6 6 8 8 9 12 15 16 17 18 16 11 10 10 10 10 10 10 10 9 10 10 10 10 10 10 10 10 10
7 6 5 4 4 3 1 4 6 7 7 7 7 8 8 7 7 7 7 8 8 8 10 10 9 9 9 9 9 9 9 12 12 12 9 8 6 7 7 8 8 8 8 8 8 9 8 8 8 8 7 7 6 5 6 5 5 6 7 8 9 9 9 10 11 11 10 10 11 11 11 10 10 10 10 9 9 9 8 9 10 10 10 11 11
8 7 7 7 6 5 3 2 1 1 2 6 9 8 6 6 6 7 7 7 7 8 8 9 8 9 9 9 9 10 2 10 10 8 6 4 5 5 7 7 8 8 8 8 8 7 8 8 8 8 8 7 4 6 5 6 7 8 9 9 9 9 10 10 10 10 11 11 10 11 11 10 9 9 9 9 9 9 9 9 9 9 10 11 12
7 7 8 7 6 6 6 5 5 4 4 6 4 2 7 7 6 6 7 7 8 8 7 7 7 7 8 8 8 8 5 6 8 8 8 7 7 6 7 7 8 8 9 8 8 8 7 8 7 8 7 7 6 8 6 6 7 8 9 9 9 10 10 9 12 16 15 16 16 14 15 15 16 15 15 15 11 8 7 9 10 9 10 12 12
6 7 7 7 6 6 6 6 6 6 6 7 6 7 7 4 3 2 4 6 8 7 4 3 4 4 5 6 5 6 5 4 3 7 7 6 6 6 6 7 8 8 8 8 7 7 6 6 5 6 7 2 7 3 3 4 7 8 8 9 9 10 10 10 9 7 17 15 14 15 15 15 15 15 15 15 15 8 7 10 10 8 11 10 12
7 7 6 6 7 7 6 5 5 5 5 6 5 6 7 5 5 3 4 5 5 4 3 2 2 1 1 4 4 4 4 5 7 5 2 3 5 6 6 7 7 7 7 7 7 6 5 5 6 4 2 7 6 5 3 6 7 7 7 8 9 9 8 9 8 9 6 4 6 8 9 11 11 9 10 15 17 13 10 12 10 10 11 11 11
7 7 6 6 6 7 7 7 7 6 5 5 4 5 4 3 3 5 5 4 4 5 5 4 1 2 3 2 2 4 8 8 9 8 7 5 7 6 5 6 6 7 7 6 5 6 4 5 3 10 8 7 7 4 2 5 6 6 7 7 7 9 7 7 6 8 9 10 10 10 11 11 11 11 10 10 10 11 11 11 11 11 10 11 11
7 7 7 7 8 7 7 7 7 6 6 5 5 4 3 4 4 6 5 4 3 2 2 4 5 5 6 6 7 6 7 5 4 9 9 10 10 9 5 5 6 5 6 6 5 6 5 2 7 6 7 5 5 3 2 2 5 6 8 10 6 6 9 9 10 10 10 10 10 10 10 9 9 9 9 9 9 8 8 11 10 9 9 10 11
7 7 8 8 8 8 8 7 6 6 6 5 5 5 4 3 4 5 5 5 7 7 6 4 3 2 2 4 4 5 8 9 4 3 6 9 10 12 6 4 6 6 7 7 6 6 5 4 4 5 4 5 4 4 5 5 6 6 7 8 11 11 7 7 8 9 9 9 10 10 10 10 8 8 10 9 8 8 11 9 8 10 10 11 11
6 6 7 7 7 7 7 8 6 5 6 7 7 7 5 5 5 4 6 6 6 6 5 5 5 4 4 4 5 6 6 6 6 4 4 5 7 8 8 7 7 3 4 5 5 2 2 4 5 7 8 9 7 6 6 6 7 6 6 7 6 5 7 6 7 8 9 9 9 9 9 9 9 9 8 8 8 7 7 7 9 10 9 8 8
4 5 6 6 6 6 6 7 6 6 6 6 7 7 6 6 6 5 4 5 5 5 5 3 4 4 4 5 6 5 5 5 5 6 3 3 4 4 5 6 6 4 3 1 2 3 4 5 6 9 9 9 10 9 9 8 6 7 6 8 8 7 6 7 6 7 7 6 7 8 8 7 9 10 8 8 8 9 9 9 10 11 10 8 9
4 5 5 4 4 5 5 5 5 5 5 6 6 6 6 6 5 5 5 5 5 5 4 3 2 3 4 4 5 6 5 3 3 3 1 2 2 3 2 1 2 4 4 1 1 3 5 6 7 7 7 9 11 12 11 11 10 11 10 10 10 6 6 5 6 6 6 6 7 7 8 7 6 7 8 8 9 10 9 9 9 10 10 9 9
5 5 4 4 4 4 3 4 5 6 5 5 5 5 5 5 5 4 4 5 5 4 4 3 2 3 3 3 3 3 3 2 2 2 1 2 2 2 1 1 1 1 5 5 5 6 5 5 8 9 10 8 7 5 5 2 8 11 12 10 8 7 5 5 5 5 6 6 6 7 7 7 7 6 7 8 8 8 8 9 9 9 8 8 8
4 3 4 4 4 5 5 5 4 5 5 4 4 4 4 4 4 3 4 4 4 3 2 2 2 2 2 1 1 1 1 1 3 3 4 4 4 3 1 2 3 3 3 1 3 3 5 4 3 5 7 8 9 8 7 7 9 9 8 7 4 5 4 4 5 5 5 6 7 7 7 8 7 7 7 7 8 7 7 8 9 9 9 10 10
4 5 5 4 4 4 4 4 3 4 4 4 5 4 4 3 4 4 4 4 2 2 1 2 2 2 2 1 1 1 1 1 5 5 5 6 6 5 5 3 3 3 3 3 4 5 5 4 7 8 6 7 6 6 6 3 4 4 5 5 5 3 3 3 3 4 4 6 6 7 7 7 8 7 7 7 8 8 8 8 8 8 8 8 9
3 3 3 3 3 3 3 3 4 3 3 4 5 6 6 5 4 5 7 6 6 4 3 2 2 3 2 2 3 2 3 3 5 5 5 4 5 5 5 5 5 4 6 8 7 7 6 6 3 3 1 3 3 3 3 4 4 5 5 4 5 5 4 5 5 6 7 7 7 7 7 7 8 8 8 8 9 10 9 10 10 9 9 9 10
2 3 3 3 4 3 3 3 4 4 3 3 3 6 8 8 7 5 5 6 5 5 6 5 5 5 4 2 5 4 4 5 8 11 10 9 7 6 8 8 7 7 9 12 7 6 5 3 2 1 2 2 1 1 1 1 2 3 3 3 4 4 4 5 5 5 6 5 5 6 6 6 6 6 7 7 8 8 9 9 10 10 10 10 10
3 3 3 5 6 5 4 4 4 3 4 4 3 2 5 6 5 8 7 4 4 4 4 3 4 6 5 3 4 10 8 7 10 11 11 9 8 7 6 6 7 8 6 5 5 6 5 3 2 1 2 2 1 2 2 2 3 3 4 4 3 2 3 3 4 5 5 5 4 5 6 6 7 6 7 6 6 7 8 7 8 8 9 10 10
3 3 4 4 3 5 4 4 3 3 3 3 2 1 2 2 5 3 8 10 5 5 3 3 5 5 5 4 5 2 5 7 10 11 10 9 8 7 5 4 6 7 4 3 4 6 4 3 3 2 2 3 2 3 3 3 3 4 4 4 4 4 5 4 5 6 5 5 5 6 6 6 6 6 6 7 7 7 7 8 7 8 9 9 10
4 4 4 3 3 3 3 3 4 4 3 3 2 2 2 2 1 4 5 7 12 13 8 5 3 2 2 2 1 1 3 7 9 8 8 8 7 5 5 5 6 6 1 3 6 6 4 3 3 3 3 4 5 5 4 4 4 4 4 4 4 4 4 4 5 4 5 5 6 6 6 6 6 7 7 6 6 7 7 7 7 7 8 8 8
4 4 4 4 3 3 3 4 4 3 3 3 3 3 2 3 2 3 1 6 5 2 3 8 11 9 4 3 1 2 4 8 7 6 6 6 5 4 3 4 5 6 4 4 4 5 5 5 5 5 6 6 6 6 7 6 5 4 3 3 4 4 3 3 3 4 5 4 5 5 5 6 7 7 7 7 7 7 7 7 7 7 7 7 8
1 4 4 3 3 2 3 3 3 4 3 4 3 3 3 1 3 3 1 3 4 2 3 5 8 9 6 5 4 4 5 8 8 5 5 5 4 5 5 4 5 5 5 6 4 4 5 5 6 6 5 6 6 6 7 6 6 5 5 4 4 4 4 3 4 4 4 4 4 4 5 5 5 5 6 6 7 7 7 7 7 7 7 8 8
2 3 2 2 3 3 3 3 4 3 4 4 3 4 3 3 3 2 2 2 2 1 3 3 2 7 8 4 6 5 4 10 12 8 4 4 5 2 3 5 6 6 5 5 4 5 5 5 5 5 5 5 6 6 6 7 6 6 6 6 5 5 4 5 4 4 4 5 5 4 5 5 4 5 5 5 6 7 7 7 7 7 7 8 7
2 2 3 3 4 4 3 4 3 4 5 5 5 4 3 3 3 3 3 2 1 3 3 2 3 2 8 10 8 7 6 11 12 11 6 8 7 5 5 6 6 6 6 6 5 5 5 5 5 5 5 6 5 6 6 6 6 6 5 6 6 6 5 6 5 5 5 5 5 4 5 5 5 5 6 6 6 6 7 7 8 8 8 8 10
2 3 4 5 5 4 4 3 3 4 4 3 3 3 4 3 3 4 4 3 2 4 3 3 3 3 4 3 5 6 9 11 13 12 7 5 5 6 5 5 5 6 6 6 6 5 5 5 5 4 4 5 6 5 6 6 6 6 7 7 7 7 3 6 6 5 6 5 5 5 5 5 5 6 6 7 7 7 7 7 8 8 9 9 8
0 7 3 3 4 4 4 4 4 4 3 4 3 3 3 3 4 4 3 3 3 2 3 3 3 4 4 6 7 8 9 6 5 5 4 4 4 4 5 5 5 6 6 6 7 7 7 6 4 3 4 4 6 6 6 6 6 6 6 7 8 7 7 8 7 7 7 6 6 6 6 6 6 6 7 7 8 8 8 8 9 8 9 9 8
2 1 4 2 3 2 4 4 3 3 3 3 4 4 3 2 3 3 3 4 4 4 4 4 4 4 5 6 6 7 8 7 6 5 5 5 5 5 5 5 6 6 6 7 7 7 6 4 2 3 3 3 3 5 6 6 6 7 8 8 8 8 8 8 8 8 8 8 6 6 6 6 7 7 8 8 8 8 9 10 9 9 9 9 10
1 0 1 0 2 4 3 3 2 2 3 3 3 3 2 3 3 3 4 4 4 4 4 4 4 4 6 7 6 7 7 7 6 5 6 6 6 6 6 6 6 7 7 7 7 5 5 4 4 4 4 4 4 5 5 5 5 5 7 8 8 8 8 9 9 9 9 9 8 7 7 7 7 8 9 9 10 11 10 10 9 9 9 9 10
2 2 2 1 1 2 2 2 2 2 2 3 3 3 3 3 3 4 4 4 4 5 5 5 4 3 7 10 9 10 8 6 5 5 5 6 7 7 7 7 7 6 6 6 7 7 7 6 5 5 4 3 3 4 5 6 6 6 6 7 8 8 8 8 9 8 9 10 10 9 8 8 9 10 10 10 10 10 10 10 10 10 10 10 10
2 3 2 1 1 1 2 2 2 2 2 3 3 3 4 4 4 3 4 4 4 5 5 5 5 5 7 7 7 10 7 6 5 5 5 4 4 5 5 5 5 6 6 6 6 5 5 4 4 3 3 3 3 3 4 4 5 6 6 5 6 7 8 8 8 8 9 11 11 12 11 10 10 9 10 10 11 11 11 12 12 11 11 11 11
3 3 1 1 1 2 2 2 2 3 2 2 3 4 3 4 4 4 4 5 5 5 5 5 5 6 6 7 6 6 5 5 5 5 5 5 5 5 5 5 5 5 5 5 5 5 4 4 4 4 4 3 3 3 4 4 4 5 6 6 6 7 8 8 9 11 11 11 12 13 13 11 10 10 10 10 11 12 12 13 14 13 11 11 11
3 3 2 2 1 1 2 2 2 3 3 3 3 3 3 3 3 3 4 4 4 4 4 5 5 5 6 6 6 5 6 6 6 6 6 5 4 5 5 5 5 5 5 4 4 5 4 4 4 4 4 4 4 4 4 4 4 5 6 6 7 7 8 9 9 9 10 12 12 12 12 11 11 11 12 12 12 12 12 12 12 13 13 14 14
1 2 2 2 1 2 2 2 2 2 3 3 3 3 3 3 3 3 3 4 4 4 4 5 5 5 5 5 5 5 5 6 6 7 6 6 6 5 5 5 5 5 4 4 4 5 5 5 5 5 5 5 5 5 5 5 5 6 6 7 7 7 8 9 10 11 11 12 12 11 11 11 11 10 11 11 12 13 14 15 15 14 14 15 16
2 1 0 1 1 1 2 2 2 2 3 3 3 3 3 3 3 3 3 4 5 5 5 5 5 4 4 4 5 5 5 5 6 6 7 7 6 6 5 5 5 5 5 5 5 5 5 5 5 6 6 7 7 7 7 6 7 8 9 8 9 8 7 9 10 9 10 11 10 11 11 12 12 12 12 12 13 13 14 14 13 15 15 16 16
1 1 1 0 1 2 2 2 2 3 3 3 2 3 3 2 2 3 3 4 4 4 4 4 4 4 4 5 5 5 5 6 6 6 6 6 7 7 7 7 6 6 6 6 6 6 5 5 5 6 6 6 7 7 7 8 7 9 8 9 6 9 10 12 10 10 10 11 11 12 12 12 12 12 12 13 13 13 14 13 13 13 14 15 15
1 2 2 2 1 1 1 2 2 3 2 2 2 3 2 2 2 3 2 3 3 3 4 4 4 4 5 5 5 5 5 6 5 5 6 6 7 7 7 6 7 7 7 7 7 7 7 7 6 6 6 7 7 8 8 9 9 8 10 6 10 14 13 14 12 10 12 11 11 12 12 12 13 13 14 14 13 13 13 14 14 15 14 15 15
1 1 1 1 1 1 1 1 1 1 1 2 2 2 2 2 2 2 2 3 3 3 3 4 4 4 5 5 5 5 5 6 6 6 6 6 6 6 7 7 8 8 8 8 8 8 8 8 8 8 8 8 9 8 9 9 9 9 8 11 14 15 14 12 10 12 11 10 12 12 13 14 14 13 13 13 14 15 15 14 14 14 15 16 16
2 2 2 2 2 2 1 2 2 1 1 1 1 1 2 2 2 2 2 3 3 3 3 4 4 4 4 5 5 5 6 6 6 6 6 6 6 7 7 7 7 7 8 8 8 8 7 8 8 8 8 9 9 9 9 10 7 10 12 14 14 13 11 9 10 11 13 11 11 12 13 13 15 14 13 13 13 14 15 16 15 15 15 15 16
Wind_Direction
202 201 205 206 206 205 205 204 211 212 218 216 219 217 216 223 217 223 198 212 204 198 204 210 208 205 204 197 205 191 193 195 195 189 203 202 225 239 245 207 229 240 233 249 252 245 246 253 261 263 268 267 267 266 274 266 248 249 256 258 261 262 259 273 285 295 295 305 303 301 317 317 310 327 305 309 314 332 324 309 313 303 303 307 297
207 201 208 206 208 207 211 206 209 213 217 216 217 217 215 212 218 224 217 205 213 208 203 204 202 204 208 200 203 190 186 195 202 193 197 205 221 213 209 214 226 237 249 242 241 255 243 243 254 255 242 253 266 266 258 265 262 261 246 242 264 271 260 277 286 292 297 294 301 311 301 302 302 325 325 317 319 319 314 315 300 304 307 314 308
195 200 206 210 209 211 215 213 208 214 217 218 218 217 210 211 211 218 224 210 204 219 205 209 197 200 210 198 195 201 189 198 207 203 201 207 222 243 232 208 220 233 226 229 237 238 237 240 245 244 244 243 242 255 266 274 284 295 299 302 297 293 292 285 287 294 300 304 309 309 311 322 317 318 314 310 314 303 307 307 316 316 320 311 306
192 196 202 209 213 215 215 222 218 213 216 216 220 220 221 210 204 215 221 222 208 204 216 208 195 198 206 198 200 209 197 206 207 200 203 212 219 218 228 233 236 235 240 242 235 229 239 244 251 259 274 271 270 278 278 274 278 272 274 279 279 285 293 288 282 289 296 298 305 303 311 313 307 306 305 309 305 316 310 313 302 305 314 310 304
188 192 198 203 211 220 220 217 219 221 224 221 215 216 222 220 207 210 216 221 212 199 201 210 199 200 210 202 203 207 208 208 210 216 210 207 211 218 218 218 225 232 240 245 252 253 256 258 253 245 236 247 252 253 261 268 276 285 281 275 276 282 284 288 287 283 288 291 298 297 298 294 296 298 302 306 305 297 303 300 310 306 305 305 302
185 192 195 202 203 212 222 220 220 221 224 226 226 218 217 219 217 204 215 219 216 212 196 201 199 200 214 211 206 206 211 216 214 223 220 211 209 218 215 219 224 231 235 236 232 236 244 244 249 248 246 246 258 269 277 277 268 261 272 283 287 287 278 273 272 275 278 283 288 294 289 293 295 293 296 293 295 305 302 298 297 306 309 306 314
182 188 188 195 197 202 209 219 223 222 218 225 229 224 220 218 218 218 209 216 216 215 207 202 200 201 202 212 213 205 209 216 219 221 231 233 229 229 234 226 226 228 233 235 240 237 238 241 241 242 245 247 256 259 253 250 259 273 266 272 273 272 275 276 274 272 276 280 285 284 288 285 291 295 294 292 288 289 297 303 306 312 311 311 307
169 176 188 198 198 199 210 210 216 218 226 228 231 230 228 222 220 220 222 215 216 217 221 208 202 206 207 210 215 210 208 216 214 223 230 229 225 225 229 238 235 230 231 234 245 247 246 245 245 244 239 238 243 255 258 261 267 267 270 271 273 273 278 283 285 288 287 290 289 295 300 299 287 285 288 277 275 274 280 302 304 309 307 302 299
204 191 189 206 220 223 225 221 214 213 216 221 226 235 232 227 224 224 219 226 221 218 222 224 215 212 209 213 216 218 216 213 216 214 216 231 243 238 234 235 237 237 241 244 236 238 240 246 244 240 241 267 259 270 293 317 301 287 284 279 275 277 278 279 280 278 277 277 282 285 282 282 283 281 284 286 289 301 302 291 293 293 301 306 305
201 191 194 199 198 192 199 223 230 228 220 213 216 220 230 229 222 215 215 217 228 233 233 231 228 222 218 212 218 224 227 232 187 125 293 242 235 243 241 240 250 259 256 254 252 245 244 251 251 257 250 238 222 213 224 238 241 265 282 286 287 285 282 280 276 271 275 281 282 285 286 290 293 296 301 301 297 289 288 302 303 304 302 299 298
199 196 198 194 190 184 184 197 193 222 233 237 225 215 218 225 225 219 215 213 220 221 226 232 233 232 230 227 222 225 227 222 144 164 183 222 249 246 248 247 241 243 244 240 250 258 261 259 261 235 206 208 218 221 229 228 233 235 241 248 259 267 273 275 275 281 282 282 284 282 284 290 295 303 299 297 299 313 317 309 300 299 296 297 300
208 206 205 198 206 206 200 213 217 218 218 219 223 219 223 223 220 216 215 210 211 219 217 225 236 240 237 235 232 232 235 144 151 167 188 199 216 242 245 244 242 238 237 245 247 249 252 253 251 251 236 231 248 216 213 221 227 232 236 240 242 245 248 257 270 276 276 278 278 281 287 285 289 290 293 300 309 308 301 298 292 291 290 289 289
224 225 222 218 217 212 209 212 213 218 215 214 204 183 194 216 218 217 216 217 208 213 218 218 221 227 241 246 247 241 246 141 164 167 186 199 202 231 244 247 254 251 250 249 253 259 261 260 264 265 271 255 231 247 255 227 207 218 228 233 235 237 235 234 237 248 263 262 265 270 267 276 278 281 291 299 302 292 291 288 288 288 287 286 283
81 80 87 240 240 230 216 216 218 216 218 206 188 195 205 215 222 220 217 213 212 215 218 214 215 218 225 236 239 245 254 156 163 167 183 197 199 222 245 245 248 254 261 261 259 253 248 254 256 255 249 241 235 242 241 243 247 226 223 226 235 224 220 226 230 231 236 251 262 266 266 266 271 279 287 289 288 288 291 288 291 288 287 284 291
81 81 81 72 66 74 144 228 234 228 217 201 194 201 212 224 229 233 227 220 217 219 226 222 219 220 221 226 231 236 240 149 160 168 184 196 186 220 251 257 252 249 250 250 251 256 261 258 257 256 250 246 247 238 237 240 245 252 253 255 253 257 253 240 228 222 216 227 240 248 262 266 268 270 266 267 274 284 289 295 292 290 287 285 278
85 83 80 72 71 67 83 111 56 13 262 221 209 196 209 233 241 249 241 233 229 228 226 233 225 222 225 230 233 238 48 85 93 96 109 143 169 222 238 241 250 253 249 251 252 257 256 258 259 256 259 263 231 154 228 254 260 258 256 256 256 255 255 245 242 262 265 269 263 268 272 295 327 304 302 297 293 288 289 284 278 271 274 278 279
67 81 86 83 87 89 85 79 72 67 63 54 53 186 195 200 211 212 234 227 219 226 220 225 230 232 228 227 232 248 110 65 99 117 123 152 193 225 237 242 244 248 253 254 257 255 258 259 262 270 272 269 110 150 166 215 249 254 254 257 264 270 269 266 208 214 227 232 248 261 274 279 277 277 275 273 266 282 289 281 270 268 268 276 276
55 49 53 64 74 79 85 89 84 82 80 77 68 53 47 42 57 331 239 211 211 208 215 226 223 230 247 234 231 227 110 50 92 123 142 169 238 235 231 237 240 248 251 250 253 254 255 261 275 282 281 339 64 74 150 232 253 252 254 256 260 259 261 265 271 224 208 226 233 240 246 252 256 260 264 265 265 247 240 254 263 269 268 267 274
62 54 46 46 62 72 80 85 90 87 81 77 72 68 61 39 33 36 44 32 31 40 43 83 114 11 296 240 37 280 151 84 41 46 93 184 251 236 241 240 243 244 249 250 241 245 240 231 211 237 347 68 58 56 328 283 269 264 263 265 262 266 270 290 292 292 293 266 254 253 247 243 244 245 246 241 245 234 228 244 259 256 259 262 267
61 62 58 55 54 61 66 71 72 71 73 77 76 74 77 92 106 77 49 36 27 26 14 9 76 130 145 189 96 50 59 42 26 23 25 2 346 301 254 244 251 249 250 255 260 248 244 258 162 85 83 81 80 64 23 317 286 284 282 280 283 282 327 315 313 315 303 291 285 281 282 285 280 272 265 252 233 220 225 234 240 249 258 264 263
61 59 58 56 53 53 58 65 69 69 68 69 66 76 85 65 69 107 110 90 78 35 2 21 34 29 26 45 71 71 76 79 18 17 21 13 359 335 270 290 276 270 260 261 263 262 260 298 89 75 89 99 105 100 171 279 297 291 274 266 302 360 337 298 298 297 287 285 283 281 282 280 282 282 271 266 274 273 238 219 231 246 263 275 278
59 59 56 51 51 53 54 57 66 72 69 77 89 81 73 93 82 100 119 129 135 132 127 113 96 71 35 15 22 76 81 85 84 63 18 11 13 5 345 20 6 330 307 276 283 307 317 291 95 69 42 24 353 355 316 298 286 269 285 342 344 346 331 294 291 286 283 289 293 295 298 292 295 287 294 307 306 302 308 316 308 296 284 278 285
67 68 64 60 56 55 56 54 54 62 72 74 80 81 80 80 85 89 110 108 112 106 97 109 121 123 124 131 130 101 81 75 56 48 12 12 20 21 20 21 339 340 3 29 27 358 346 15 60 18 354 1 350 321 292 281 264 254 282 300 295 288 266 268 277 287 290 292 298 296 297 296 291 295 292 295 297 295 296 306 303 294 287 287 287
71 77 75 67 62 58 57 57 55 56 52 62 71 76 76 81 86 87 95 113 113 109 113 129 137 131 117 109 108 102 93 84 66 46 16 353 20 26 20 11 10 356 344 356 339 341 318 360 7 358 332 312 297 279 261 240 256 301 275 263 260 252 254 271 267 279 291 291 290 291 291 297 305 297 306 310 300 302 307 298 282 272 275 279 284
53 58 59 68 74 72 68 67 61 53 57 57 57 60 59 53 60 55 63 72 73 82 88 90 95 95 92 109 109 97 86 93 98 113 73 66 85 20 4 341 344 340 317 261 171 329 7 353 322 293 284 280 271 270 263 239 232 248 252 249 244 245 239 265 287 296 296 298 291 290 291 289 281 294 310 311 309 307 296 287 287 290 289 288 285
50 46 58 55 45 57 79 84 74 67 61 59 58 53 55 55 50 41 51 60 55 53 49 59 63 81 118 120 111 114 125 106 97 72 60 3 148 121 294 241 51 330 302 310 324 296 294 281 277 277 271 260 267 266 282 287 202 226 238 240 242 248 273 297 298 292 290 289 292 287 289 291 295 307 310 306 303 301 302 297 299 291 288 284 281
48 47 45 58 63 47 33 25 48 65 46 61 67 59 55 67 68 55 51 45 53 50 50 53 42 72 92 85 99 113 115 106 65 43 12 2 357 353 220 122 169 241 271 264 260 271 241 224 278 278 289 284 271 280 277 237 238 232 228 228 266 318 300 285 296 299 297 300 297 304 308 311 315 309 301 302 296 295 296 295 294 304 310 305 298
39 33 36 35 35 41 58 43 9 53 56 40 40 43 48 45 59 56 39 27 20 36 39 44 32 38 27 15 13 349 337 74 54 13 4 353 341 336 343 346 3 356 326 8 341 315 303 252 232 238 230 236 233 230 226 286 308 307 318 332 323 319 336 310 274 296 321 327 318 323 323 332 326 323 318 312 312 312 312 307 306 299 294 295 291
47 47 39 47 47 26 38 48 27 29 65 81 75 41 19 23 33 67 50 26 7 359 351 12 35 8 358 24 347 339 298 12 29 18 356 342 317 321 332 349 358 334 41 16 323 282 253 242 226 237 282 312 318 325 353 323 347 340 316 343 319 319 344 344 348 354 352 336 332 332 334 337 327 323 323 323 325 327 333 331 323 314 310 302 296
65 53 30 29 27 26 24 47 43 6 24 42 84 106 59 47 32 11 69 60 45 19 350 19 4 346 333 356 51 346 9 18 359 355 353 345 335 291 285 296 299 289 313 320 302 288 274 281 280 327 319 265 306 299 330 341 356 330 344 360 310 339 347 338 346 340 328 321 326 322 327 320 316 327 330 325 325 325 329 324 318 318 312 310 307
30 47 32 33 15 346 7 23 33 35 15 16 19 41 142 114 94 96 77 77 67 29 30 7 1 0 349 326 94 93 58 27 1 344 342 340 330 322 305 288 289 286 291 309 254 242 257 257 241 200 273 288 326 341 328 340 360 337 348 344 330 8 5 355 8 328 308 303 304 304 299 301 306 308 308 311 312 313 306 305 308 311 310 314 312
42 36 37 30 26 352 6 21 0 16 32 14 11 16 332 139 146 225 163 145 153 153 144 59 4 7 11 11 343 107 62 20 345 338 332 337 330 326 325 309 294 285 296 243 271 278 283 282 285 309 316 298 318 321 329 341 351 342 336 341 342 7 357 5 347 315 319 323 329 318 308 307 309 306 302 298 301 296 297 301 303 302 307 305 305
24 25 31 20 11 9 351 12 358 6 7 360 18 357 345 349 329 148 188 181 160 157 160 173 155 146 43 26 24 56 285 300 313 317 322 324 332 330 323 289 273 275 251 237 265 276 274 279 282 274 285 294 299 302 319 335 338 335 342 337 340 2 1 352 311 327 330 340 318 309 320 318 318 314 302 305 308 308 308 303 301 304 303 301 301
36 25 13 0 1 2 359 3 356 359 1 351 352 336 356 348 352 326 270 160 166 154 179 180 154 132 140 140 160 236 312 324 327 323 314 320 313 323 341 302 285 270 217 272 286 281 274 278 277 281 286 292 290 298 301 309 317 324 325 333 341 359 341 319 321 347 327 326 321 332 337 334 330 322 328 324 317 314 307 309 312 308 309 308 307
54 123 95 5 338 359 359 356 358 349 346 345 341 334 342 344 301 288 331 343 339 294 184 189 209 160 142 186 203 221 312 338 340 338 309 302 304 304 296 262 249 227 207 232 250 277 287 285 283 286 289 293 300 300 298 307 312 317 325 335 334 341 330 331 347 342 328 323 319 336 342 321 321 328 321 323 324 319 317 315 315 316 313 312 307
347 359 8 12 346 0 354 4 344 335 345 338 329 321 318 310 313 327 341 345 316 311 297 297 163 148 152 136 188 173 349 353 323 320 285 266 274 309 267 260 267 264 246 240 263 271 274 283 292 289 292 293 299 301 307 305 312 320 328 330 335 329 325 340 341 337 327 314 322 326 319 310 322 320 319 315 313 309 309 311 309 308 306 302 310
344 14 351 8 353 343 349 341 323 349 334 309 314 318 321 322 320 316 329 335 333 319 310 298 305 204 164 182 175 138 35 336 299 292 253 219 226 234 269 280 284 287 274 261 261 269 272 270 264 279 283 285 290 296 299 302 308 309 313 314 326 307 325 342 326 322 318 319 320 327 321 320 321 317 315 311 306 303 301 303 299 297 297 302 299
6 17 1 357 333 323 319 315 335 311 266 284 283 294 308 312 326 340 333 320 331 309 303 333 321 301 329 322 357 346 345 300 273 256 226 209 209 235 256 271 274 269 271 271 271 270 270 276 277 275 282 299 295 296 305 306 310 306 311 318 307 311 293 276 270 301 314 305 317 327 320 317 319 313 312 306 307 305 302 301 304 305 302 293 287
226 115 109 4 311 311 319 318 315 305 314 297 300 302 313 314 322 321 311 302 301 313 331 319 325 330 333 353 335 342 325 321 334 341 322 315 313 319 304 290 279 276 278 278 277 274 272 268 269 283 277 298 323 316 303 304 310 306 316 303 301 308 302 309 316 315 312 321 324 321 321 320 316 316 312 307 302 302 304 305 299 294 293 294 291
303 183 135 45 292 335 308 304 297 291 296 307 305 318 302 299 309 300 292 304 321 332 329 332 326 326 332 353 356 341 327 322 321 329 323 319 309 310 307 295 293 291 290 293 292 292 277 260 271 269 282 291 316 316 317 307 306 308 307 309 312 307 302 306 310 312 313 321 317 314 313 316 316 314 311 306 307 306 302 295 291 286 284 285 289
311 349 293 204 34 301 263 271 283 328 334 322 313 287 285 297 284 285 300 311 307 309 307 311 311 318 44 47 34 2 313 303 310 321 323 320 316 309 306 307 311 316 322 347 349 351 355 354 356 349 345 352 330 305 308 311 311 323 312 304 302 304 305 303 303 303 310 310 310 313 313 313 316 315 309 308 302 294 285 283 283 282 284 284 286
309 313 290 310 195 285 322 318 331 338 302 301 293 301 304 302 305 311 313 306 306 302 302 296 298 304 72 30 357 329 304 295 306 321 325 329 332 334 345 353 8 10 3 5 11 15 14 14 359 356 353 338 346 340 330 324 321 313 308 304 303 307 310 308 310 316 309 303 305 308 314 314 311 304 297 292 290 290 291 288 290 290 289 288 288
288 288 303 295 286 309 310 315 305 292 285 283 304 312 312 305 299 305 288 287 290 295 295 297 296 323 339 357 322 299 293 310 324 315 321 328 341 353 0 7 3 6 6 10 17 11 11 357 349 337 3 353 348 335 324 322 325 319 321 325 320 315 313 315 314 309 306 305 305 308 310 307 305 305 306 302 296 292 291 292 290 289 289 288 288
286 272 239 243 329 318 296 294 286 287 291 344 325 305 304 299 291 286 288 288 289 291 292 298 307 316 314 310 295 291 312 310 311 310 317 317 329 336 339 345 353 359 356 358 0 4 350 355 348 352 344 334 331 324 316 323 324 319 314 312 306 304 301 301 302 306 310 309 306 304 303 305 304 300 298 298 298 298 296 294 291 290 292 295 295
241 240 241 225 181 254 265 272 286 289 296 289 284 286 287 286 289 293 291 287 291 295 299 304 306 306 306 299 296 302 306 309 310 310 304 316 324 331 331 336 339 343 340 343 349 340 343 336 345 335 338 323 322 318 315 315 309 302 302 310 311 306 306 309 311 312 307 303 304 305 305 302 303 302 299 298 296 291 286 287 291 294 290 288 291
236 224 232 239 226 249 260 272 287 294 295 294 285 278 283 286 288 295 304 306 306 305 302 300 300 302 306 313 317 315 313 317 310 307 304 305 317 323 325 327 333 325 327 328 332 326 330 326 322 323 322 322 323 326 329 321 318 315 314 307 307 304 298 297 297 301 306 310 309 304 301 299 297 298 301 299 296 294 292 292 287 284 285 290 293
200 251 84 283 299 262 260 278 265 276 278 278 284 290 283 294 307 311 303 309 308 302 298 299 298 300 307 307 311 310 316 321 326 326 321 313 314 316 317 319 319 322 327 324 318 315 315 316 317 316 315 315 314 312 307 307 299 302 300 303 300 314 1 358 343 331 317 316 311 308 307 304 301 297 293 291 291 289 285 282 284 287 288 289 290
183 146 136 92 254 247 224 233 222 247 254 255 268 288 298 302 296 290 295 299 296 300 298 294 295 299 301 303 307 309 312 310 310 310 320 339 343 340 339 337 330 326 319 314 310 311 309 309 309 311 307 308 305 305 303 304 307 303 310 303 6 28 13 7 345 332 322 321 310 300 294 292 291 291 292 291 289 287 287 286 285 284 287 290 291
205 162 157 177 192 246 224 216 254 269 265 268 260 248 260 271 276 283 285 292 299 298 295 300 302 307 308 310 311 312 314 314 313 335 344 343 351 351 343 334 329 326 324 320 319 313 310 307 311 308 306 304 308 307 305 300 303 304 296 316 23 10 9 358 349 336 320 308 303 304 301 297 293 292 291 288 286 285 284 285 286 287 288 287 289
104 101 145 153 184 177 182 277 273 265 268 276 275 281 281 277 277 283 294 295 293 292 299 304 305 308 309 308 311 315 319 318 320 321 326 339 339 337 335 334 333 330 326 324 320 320 317 315 309 305 306 307 305 304 303 305 303 315 355 9 0 1 352 339 316 320 326 319 314 303 298 291 289 285 284 284 284 283 280 280 282 286 287 289 292
129 135 138 148 158 166 200 204 180 197 255 273 272 277 276 282 284 296 298 305 303 305 306 304 307 309 313 312 316 313 315 316 317 314 317 324 328 327 333 337 332 330 324 320 318 318 321 324 322 319 315 311 307 307 308 306 329 18 358 355 348 343 350 349 329 327 319 310 301 299 290 285 283 282 279 280 281 281 282 285 286 286 287 289 289